| time (UTC) | temp F | wind direction | speed MPH | gust MPH | rain 1hr in | rain 24hr in | rain mn in | humidity % | barometer mb |
| 20260509091442 | 45 | 149 | 1.0 | 1.0 | 0.00 | 0.00 | 0.00 | 60 | 987.4 |
| 20260509090942 | 46 | 149 | 1.0 | 3.0 | 0.00 | 0.00 | 0.00 | 60 | 987.4 |
| 20260509090442 | 46 | 138 | 1.0 | 2.0 | 0.00 | 0.00 | 0.00 | 59 | 987.4 |
| 20260509085942 | 46 | 117 | 1.0 | 2.0 | 0.00 | 0.00 | 0.00 | 59 | 987.5 |
| 20260509085442 | 46 | 159 | 1.0 | 2.0 | 0.00 | 0.00 | 0.00 | 59 | 987.6 |
| 20260509084942 | 46 | 161 | 1.0 | 2.0 | 0.00 | 0.00 | 0.00 | 59 | 987.6 |
| 20260509084442 | 46 | 154 | 1.0 | 3.0 | 0.00 | 0.00 | 0.00 | 58 | 987.7 |
| 20260509083942 | 47 | 161 | 1.0 | 2.0 | 0.00 | 0.00 | 0.00 | 59 | 987.7 |
| 20260509083442 | 47 | 155 | 1.0 | 2.0 | 0.00 | 0.00 | 0.00 | 58 | 987.9 |
| 20260509082942 | 47 | 146 | 0.0 | 2.0 | 0.00 | 0.00 | 0.00 | 59 | 987.9 |
| 20260509082442 | 47 | 151 | 0.0 | 2.0 | 0.00 | 0.00 | 0.00 | 59 | 988.0 |
| 20260509081942 | 47 | 144 | 1.0 | 3.0 | 0.00 | 0.00 | 0.00 | 59 | 988.2 |
| 20260509081442 | 47 | 115 | 1.0 | 2.0 | 0.00 | 0.00 | 0.00 | 58 | 988.1 |
| 20260509080942 | 47 | 165 | 1.0 | 2.0 | 0.00 | 0.00 | 0.00 | 59 | 988.2 |
| 20260509080442 | 47 | 159 | 1.0 | 3.0 | 0.00 | 0.00 | 0.00 | 59 | 988.2 |
| 20260509075942 | 47 | 160 | 1.0 | 2.0 | 0.00 | 0.00 | 0.00 | 59 | 988.3 |
| 20260509075442 | 47 | 150 | 2.0 | 5.0 | 0.00 | 0.00 | 0.00 | 59 | 988.4 |
| 20260509075019 | 47 | 151 | 2.0 | 5.0 | 0.00 | 0.00 | 0.00 | 59 | 988.5 |
| 20260509074942 | 47 | 151 | 2.0 | 5.0 | 0.00 | 0.00 | 0.00 | 59 | 988.5 |
| 20260509074442 | 47 | 158 | 1.0 | 5.0 | 0.00 | 0.00 | 0.00 | 59 | 988.6 |
| 20260509073942 | 46 | 150 | 1.0 | 2.0 | 0.00 | 0.00 | 0.00 | 60 | 988.7 |
| 20260509073442 | 46 | 163 | 1.0 | 2.0 | 0.00 | 0.00 | 0.00 | 61 | 988.7 |
| 20260509072942 | 46 | 161 | 1.0 | 2.0 | 0.00 | 0.00 | 0.00 | 61 | 988.9 |
| 20260509072442 | 46 | 155 | 0.0 | 2.0 | 0.00 | 0.00 | 0.00 | 62 | 988.9 |
| 20260509071942 | 46 | 149 | 0.0 | 0.0 | 0.00 | 0.00 | 0.00 | 63 | 989.0 |
| 20260509071442 | 46 | 146 | 0.0 | 0.0 | 0.00 | 0.00 | 0.00 | 63 | 989.2 |
| 20260509070942 | 46 | 147 | 0.0 | 1.0 | 0.00 | 0.00 | 0.00 | 64 | 989.2 |
| 20260509070442 | 46 | 348 | 1.0 | 3.0 | 0.00 | 0.00 | 0.00 | 64 | 989.3 |
| 20260509065942 | 46 | 114 | 1.0 | 2.0 | 0.00 | 0.00 | 0.00 | 63 | 989.4 |
| 20260509065442 | 46 | 115 | 1.0 | 2.0 | 0.00 | 0.00 | 0.00 | 61 | 989.7 |
| 20260509064942 | 46 | 165 | 1.0 | 4.0 | 0.00 | 0.00 | 0.00 | 61 | 989.5 |
| 20260509064442 | 46 | 157 | 2.0 | 3.0 | 0.00 | 0.00 | 0.00 | 60 | 989.5 |
| 20260509063942 | 46 | 163 | 2.0 | 4.0 | 0.00 | 0.00 | 0.00 | 60 | 989.6 |
| 20260509063442 | 46 | 139 | 3.0 | 6.0 | 0.00 | 0.00 | 0.00 | 60 | 989.7 |
| 20260509062942 | 46 | 159 | 3.0 | 5.0 | 0.00 | 0.00 | 0.00 | 59 | 989.8 |
| 20260509062442 | 46 | 163 | 3.0 | 5.0 | 0.00 | 0.00 | 0.00 | 59 | 989.9 |
| 20260509061942 | 46 | 158 | 3.0 | 5.0 | 0.00 | 0.00 | 0.00 | 59 | 990.0 |
| 20260509061442 | 46 | 147 | 3.0 | 5.0 | 0.00 | 0.00 | 0.00 | 58 | 990.2 |
| 20260509060942 | 46 | 152 | 3.0 | 5.0 | 0.00 | 0.00 | 0.00 | 58 | 990.3 |
| 20260509060443 | 46 | 149 | 3.0 | 6.0 | 0.00 | 0.00 | 0.00 | 59 | 990.4 |
| 20260509055942 | 46 | 146 | 3.0 | 5.0 | 0.00 | 0.00 | 0.00 | 59 | 990.5 |
| 20260509055443 | 46 | 153 | 3.0 | 5.0 | 0.00 | 0.00 | 0.00 | 60 | 990.5 |
| 20260509054943 | 46 | 153 | 3.0 | 5.0 | 0.00 | 0.00 | 0.00 | 60 | 990.7 |
| 20260509054443 | 46 | 157 | 3.0 | 6.0 | 0.00 | 0.00 | 0.00 | 60 | 990.7 |
| 20260509053943 | 46 | 152 | 2.0 | 5.0 | 0.00 | 0.00 | 0.00 | 61 | 990.7 |
| 20260509053443 | 46 | 165 | 2.0 | 4.0 | 0.00 | 0.00 | 0.00 | 61 | 990.8 |
| 20260509052943 | 46 | 153 | 2.0 | 4.0 | 0.00 | 0.00 | 0.00 | 61 | 990.9 |
| 20260509052443 | 46 | 157 | 2.0 | 5.0 | 0.00 | 0.00 | 0.00 | 61 | 991.0 |
| 20260509051943 | 46 | 168 | 1.0 | 3.0 | 0.00 | 0.00 | 0.00 | 61 | 991.0 |
| 20260509051443 | 46 | 156 | 1.0 | 4.0 | 0.00 | 0.00 | 0.00 | 61 | 991.1 |
| 20260509050943 | 46 | 167 | 2.0 | 3.0 | 0.00 | 0.00 | 0.00 | 61 | 991.1 |
| 20260509050443 | 46 | 165 | 2.0 | 4.0 | 0.00 | 0.00 | 0.00 | 60 | 991.1 |
| 20260509045943 | 46 | 166 | 2.0 | 5.0 | 0.00 | 0.00 | 0.00 | 60 | 991.1 |
| 20260509045443 | 46 | 153 | 3.0 | 5.0 | 0.00 | 0.00 | 0.00 | 60 | 991.2 |
| 20260509044943 | 46 | 158 | 3.0 | 6.0 | 0.00 | 0.00 | 0.00 | 60 | 991.2 |
| 20260509044443 | 46 | 157 | 3.0 | 5.0 | 0.00 | 0.00 | 0.00 | 60 | 991.2 |
| 20260509043943 | 46 | 150 | 3.0 | 6.0 | 0.00 | 0.00 | 0.00 | 60 | 991.2 |
| 20260509043443 | 46 | 134 | 3.0 | 8.0 | 0.00 | 0.00 | 0.00 | 60 | 991.2 |
| 20260509042943 | 46 | 166 | 3.0 | 7.0 | 0.00 | 0.00 | 0.00 | 60 | 991.3 |
| 20260509042443 | 46 | 152 | 3.0 | 7.0 | 0.00 | 0.00 | 0.00 | 61 | 991.4 |
| 20260509041943 | 46 | 153 | 3.0 | 6.0 | 0.00 | 0.00 | 0.00 | 60 | 991.5 |
| 20260509041443 | 46 | 153 | 3.0 | 7.0 | 0.00 | 0.00 | 0.00 | 60 | 991.6 |
| 20260509040943 | 46 | 156 | 3.0 | 6.0 | 0.00 | 0.00 | 0.00 | 60 | 991.6 |
| 20260509040443 | 46 | 157 | 3.0 | 6.0 | 0.00 | 0.00 | 0.00 | 60 | 991.7 |
| 20260509035943 | 46 | 147 | 3.0 | 7.0 | 0.00 | 0.00 | 0.00 | 61 | 991.8 |
| 20260509035443 | 46 | 157 | 3.0 | 6.0 | 0.00 | 0.00 | 0.00 | 60 | 991.8 |
| 20260509034943 | 46 | 154 | 3.0 | 8.0 | 0.00 | 0.00 | 0.00 | 60 | 991.9 |
| 20260509034443 | 46 | 152 | 3.0 | 7.0 | 0.00 | 0.00 | 0.00 | 60 | 991.9 |
| 20260509033943 | 46 | 154 | 3.0 | 7.0 | 0.00 | 0.00 | 0.00 | 59 | 992.0 |
| 20260509033443 | 45 | 153 | 3.0 | 6.0 | 0.00 | 0.00 | 0.00 | 60 | 992.1 |
| 20260509032943 | 45 | 129 | 3.0 | 5.0 | 0.00 | 0.00 | 0.00 | 60 | 992.1 |
| 20260509032443 | 45 | 158 | 2.0 | 6.0 | 0.00 | 0.00 | 0.00 | 60 | 992.2 |
| 20260509031943 | 45 | 142 | 2.0 | 4.0 | 0.00 | 0.00 | 0.00 | 61 | 992.3 |
| 20260509031443 | 45 | 133 | 2.0 | 5.0 | 0.00 | 0.00 | 0.00 | 61 | 992.4 |
| 20260509030943 | 45 | 146 | 2.0 | 6.0 | 0.00 | 0.00 | 0.00 | 62 | 992.4 |
| 20260509030443 | 45 | 171 | 2.0 | 4.0 | 0.00 | 0.00 | 0.00 | 63 | 992.5 |
| 20260509025943 | 45 | 156 | 1.0 | 3.0 | 0.00 | 0.00 | 0.00 | 64 | 992.5 |
| 20260509025443 | 45 | 161 | 2.0 | 5.0 | 0.00 | 0.00 | 0.00 | 64 | 992.6 |
| 20260509024943 | 44 | 150 | 3.0 | 6.0 | 0.00 | 0.00 | 0.00 | 63 | 992.8 |
| 20260509024443 | 44 | 148 | 2.0 | 6.0 | 0.00 | 0.00 | 0.00 | 63 | 992.8 |
| 20260509023943 | 44 | 156 | 2.0 | 3.0 | 0.00 | 0.00 | 0.00 | 63 | 992.8 |
| 20260509023443 | 44 | 162 | 2.0 | 3.0 | 0.00 | 0.00 | 0.00 | 64 | 992.8 |
| 20260509022943 | 44 | 150 | 2.0 | 4.0 | 0.00 | 0.00 | 0.00 | 64 | 992.8 |
| 20260509022443 | 44 | 163 | 2.0 | 3.0 | 0.00 | 0.00 | 0.00 | 65 | 992.8 |
| 20260509021943 | 44 | 153 | 2.0 | 4.0 | 0.00 | 0.00 | 0.00 | 65 | 992.9 |
| 20260509021443 | 44 | 165 | 2.0 | 4.0 | 0.00 | 0.00 | 0.00 | 65 | 992.8 |
| 20260509020943 | 43 | 150 | 1.0 | 3.0 | 0.00 | 0.00 | 0.00 | 66 | 992.8 |
| 20260509020443 | 43 | 168 | 1.0 | 2.0 | 0.00 | 0.00 | 0.00 | 65 | 992.9 |
| 20260509015943 | 43 | 160 | 1.0 | 4.0 | 0.00 | 0.00 | 0.00 | 65 | 992.9 |
| 20260509015443 | 43 | 169 | 1.0 | 4.0 | 0.00 | 0.00 | 0.00 | 64 | 992.8 |
| 20260509014943 | 43 | 165 | 1.0 | 2.0 | 0.00 | 0.00 | 0.00 | 64 | 992.8 |
| 20260509014443 | 43 | 157 | 1.0 | 2.0 | 0.00 | 0.00 | 0.00 | 64 | 992.8 |
| 20260509013943 | 43 | 162 | 1.0 | 2.0 | 0.00 | 0.00 | 0.00 | 64 | 992.8 |
| 20260509013444 | 43 | 164 | 1.0 | 2.0 | 0.00 | 0.00 | 0.00 | 64 | 992.8 |
| 20260509012943 | 43 | 162 | 0.0 | 2.0 | 0.00 | 0.00 | 0.00 | 65 | 992.8 |
| 20260509012443 | 44 | 161 | 0.0 | 0.0 | 0.00 | 0.00 | 0.00 | 65 | 992.7 |
| 20260509011943 | 44 | 159 | 0.0 | 0.0 | 0.00 | 0.00 | 0.00 | 65 | 992.7 |
| 20260509011443 | 44 | 153 | 0.0 | 0.0 | 0.00 | 0.00 | 0.00 | 65 | 992.7 |
| 20260509010943 | 44 | 148 | 0.0 | 0.0 | 0.00 | 0.00 | 0.00 | 66 | 992.6 |
| 20260509010443 | 44 | 148 | 0.0 | 0.0 | 0.00 | 0.00 | 0.00 | 65 | 992.6 |
| 20260509005944 | 44 | 148 | 0.0 | 0.0 | 0.00 | 0.00 | 0.00 | 64 | 992.6 |
| 20260509005443 | 44 | 148 | 0.0 | 0.0 | 0.00 | 0.00 | 0.00 | 63 | 992.6 |
| 20260509004944 | 45 | 148 | 0.0 | 0.0 | 0.00 | 0.00 | 0.00 | 62 | 992.6 |
| 20260509004444 | 45 | 148 | 0.0 | 0.0 | 0.00 | 0.00 | 0.00 | 63 | 992.6 |
| 20260509003944 | 46 | 148 | 0.0 | 0.0 | 0.00 | 0.00 | 0.00 | 62 | 992.6 |
| 20260509003444 | 46 | 148 | 0.0 | 0.0 | 0.00 | 0.00 | 0.00 | 60 | 992.6 |
| 20260509002944 | 47 | 148 | 0.0 | 0.0 | 0.00 | 0.00 | 0.00 | 61 | 992.6 |
| 20260509002444 | 47 | 150 | 0.0 | 1.0 | 0.00 | 0.00 | 0.00 | 60 | 992.5 |
| 20260509001944 | 48 | 145 | 0.0 | 2.0 | 0.00 | 0.00 | 0.00 | 60 | 992.5 |
| 20260509001444 | 48 | 135 | 0.0 | 1.0 | 0.00 | 0.00 | 0.00 | 60 | 992.6 |
| 20260509000944 | 48 | 130 | 1.0 | 2.0 | 0.00 | 0.00 | 0.00 | 58 | 992.6 |
| 20260509000444 | 48 | 109 | 1.0 | 2.0 | 0.00 | 0.00 | 0.00 | 59 | 992.5 |
| 20260508235944 | 48 | 108 | 2.0 | 3.0 | 0.00 | 0.00 | 0.00 | 58 | 992.5 |
| 20260508235444 | 47 | 109 | 1.0 | 3.0 | 0.00 | 0.00 | 0.00 | 58 | 992.6 |
| 20260508234944 | 47 | 107 | 1.0 | 3.0 | 0.00 | 0.00 | 0.00 | 58 | 992.7 |
| 20260508234444 | 48 | 105 | 1.0 | 2.0 | 0.00 | 0.00 | 0.00 | 58 | 992.7 |
| 20260508233944 | 48 | 81 | 0.0 | 2.0 | 0.00 | 0.00 | 0.00 | 58 | 992.7 |
| 20260508233444 | 48 | 94 | 0.0 | 0.0 | 0.00 | 0.00 | 0.00 | 56 | 992.8 |
| 20260508232944 | 48 | 94 | 0.0 | 0.0 | 0.00 | 0.00 | 0.00 | 56 | 992.7 |
| 20260508232444 | 49 | 94 | 0.0 | 0.0 | 0.00 | 0.00 | 0.00 | 55 | 992.7 |
| 20260508231944 | 50 | 94 | 0.0 | 0.0 | 0.00 | 0.00 | 0.00 | 53 | 992.8 |
| 20260508231444 | 50 | 94 | 0.0 | 2.0 | 0.00 | 0.00 | 0.00 | 53 | 992.8 |
| 20260508230944 | 50 | 83 | 0.0 | 1.0 | 0.00 | 0.00 | 0.00 | 53 | 992.8 |
| 20260508230444 | 51 | 113 | 1.0 | 2.0 | 0.00 | 0.00 | 0.00 | 52 | 992.7 |
| 20260508225944 | 51 | 92 | 1.0 | 2.0 | 0.00 | 0.00 | 0.00 | 50 | 992.8 |
| 20260508225444 | 51 | 107 | 1.0 | 2.0 | 0.00 | 0.00 | 0.00 | 51 | 992.8 |
| 20260508224944 | 51 | 86 | 1.0 | 3.0 | 0.00 | 0.00 | 0.00 | 51 | 992.8 |
| 20260508224444 | 52 | 98 | 1.0 | 3.0 | 0.00 | 0.00 | 0.00 | 50 | 992.9 |
| 20260508223944 | 52 | 86 | 1.0 | 3.0 | 0.00 | 0.00 | 0.00 | 50 | 992.8 |
| 20260508223444 | 52 | 96 | 1.0 | 3.0 | 0.00 | 0.00 | 0.00 | 50 | 993.0 |
| 20260508222944 | 52 | 102 | 2.0 | 4.0 | 0.00 | 0.00 | 0.00 | 52 | 993.0 |
| 20260508222444 | 52 | 88 | 1.0 | 4.0 | 0.00 | 0.00 | 0.00 | 51 | 993.0 |
| 20260508221944 | 52 | 86 | 1.0 | 4.0 | 0.00 | 0.00 | 0.00 | 54 | 993.0 |
| 20260508221444 | 52 | 78 | 2.0 | 3.0 | 0.00 | 0.00 | 0.00 | 54 | 993.0 |
| 20260508220944 | 51 | 90 | 2.0 | 3.0 | 0.00 | 0.00 | 0.00 | 54 | 993.1 |
| 20260508220444 | 52 | 96 | 2.0 | 4.0 | 0.00 | 0.00 | 0.00 | 52 | 993.0 |
| 20260508215944 | 52 | 81 | 2.0 | 3.0 | 0.00 | 0.00 | 0.00 | 52 | 993.2 |
| 20260508215444 | 52 | 92 | 1.0 | 3.0 | 0.00 | 0.00 | 0.00 | 53 | 993.2 |
| 20260508214945 | 52 | 106 | 1.0 | 3.0 | 0.00 | 0.00 | 0.00 | 54 | 993.2 |
| 20260508214444 | 52 | 78 | 1.0 | 3.0 | 0.00 | 0.00 | 0.00 | 52 | 993.2 |
| 20260508213945 | 52 | 104 | 2.0 | 3.0 | 0.00 | 0.00 | 0.00 | 53 | 993.2 |
| 20260508213444 | 52 | 73 | 1.0 | 4.0 | 0.00 | 0.00 | 0.00 | 52 | 993.3 |
| 20260508212945 | 53 | 80 | 2.0 | 3.0 | 0.00 | 0.00 | 0.00 | 52 | 993.2 |
| 20260508212444 | 53 | 75 | 2.0 | 4.0 | 0.00 | 0.00 | 0.00 | 49 | 993.1 |
| 20260508211945 | 54 | 93 | 1.0 | 6.0 | 0.00 | 0.00 | 0.00 | 49 | 993.2 |
| 20260508211444 | 54 | 72 | 1.0 | 3.0 | 0.00 | 0.00 | 0.00 | 52 | 993.2 |
| 20260508210944 | 54 | 121 | 2.0 | 4.0 | 0.00 | 0.00 | 0.00 | 51 | 993.1 |
| 20260508210444 | 54 | 88 | 2.0 | 7.0 | 0.00 | 0.00 | 0.00 | 50 | 993.2 |
| 20260508205944 | 54 | 103 | 2.0 | 3.0 | 0.00 | 0.00 | 0.00 | 51 | 993.2 |
| 20260508205444 | 53 | 71 | 2.0 | 4.0 | 0.00 | 0.00 | 0.00 | 51 | 993.2 |
| 20260508204945 | 53 | 117 | 2.0 | 4.0 | 0.00 | 0.00 | 0.00 | 53 | 993.2 |
| 20260508204444 | 53 | 75 | 2.0 | 5.0 | 0.00 | 0.00 | 0.00 | 51 | 993.3 |
| 20260508203944 | 53 | 98 | 2.0 | 6.0 | 0.00 | 0.00 | 0.00 | 53 | 993.3 |
| 20260508203444 | 52 | 90 | 2.0 | 6.0 | 0.00 | 0.00 | 0.00 | 53 | 993.3 |
| 20260508202944 | 52 | 77 | 2.0 | 4.0 | 0.00 | 0.00 | 0.00 | 53 | 993.4 |
| 20260508202445 | 51 | 80 | 2.0 | 4.0 | 0.00 | 0.00 | 0.00 | 53 | 993.3 |
| 20260508201945 | 51 | 86 | 2.0 | 6.0 | 0.00 | 0.00 | 0.00 | 53 | 993.3 |
| 20260508201445 | 52 | 103 | 2.0 | 4.0 | 0.00 | 0.00 | 0.00 | 53 | 993.4 |
| 20260508200945 | 52 | 84 | 2.0 | 4.0 | 0.00 | 0.00 | 0.00 | 52 | 993.4 |
| 20260508200445 | 52 | 82 | 2.0 | 3.0 | 0.00 | 0.00 | 0.00 | 53 | 993.5 |
| 20260508195945 | 52 | 76 | 2.0 | 3.0 | 0.00 | 0.00 | 0.00 | 53 | 993.5 |
| 20260508195445 | 53 | 71 | 2.0 | 4.0 | 0.00 | 0.00 | 0.00 | 53 | 993.4 |
| 20260508194945 | 53 | 82 | 2.0 | 6.0 | 0.00 | 0.00 | 0.00 | 55 | 993.8 |
| 20260508194445 | 53 | 77 | 2.0 | 3.0 | 0.00 | 0.00 | 0.00 | 54 | 993.7 |
| 20260508193945 | 52 | 89 | 2.0 | 4.0 | 0.00 | 0.00 | 0.00 | 55 | 993.8 |
| 20260508193445 | 52 | 93 | 2.0 | 4.0 | 0.00 | 0.00 | 0.00 | 55 | 993.9 |
| 20260508192945 | 52 | 96 | 2.0 | 4.0 | 0.00 | 0.00 | 0.00 | 54 | 993.9 |
| 20260508192445 | 52 | 81 | 2.0 | 6.0 | 0.00 | 0.00 | 0.00 | 54 | 994.0 |
| 20260508191945 | 52 | 77 | 2.0 | 3.0 | 0.00 | 0.00 | 0.00 | 53 | 994.0 |
| 20260508191445 | 52 | 80 | 2.0 | 4.0 | 0.00 | 0.00 | 0.00 | 58 | 993.9 |
| 20260508190945 | 51 | 82 | 2.0 | 3.0 | 0.00 | 0.00 | 0.00 | 56 | 994.1 |
| 20260508190445 | 51 | 75 | 2.0 | 4.0 | 0.00 | 0.00 | 0.00 | 57 | 994.1 |
| 20260508185945 | 50 | 108 | 2.0 | 4.0 | 0.00 | 0.00 | 0.00 | 58 | 994.3 |
| 20260508185445 | 51 | 76 | 2.0 | 5.0 | 0.00 | 0.00 | 0.00 | 57 | 994.3 |
| 20260508184945 | 51 | 71 | 2.0 | 4.0 | 0.00 | 0.00 | 0.00 | 58 | 994.4 |
| 20260508184445 | 51 | 80 | 2.0 | 4.0 | 0.00 | 0.00 | 0.00 | 59 | 994.3 |
| 20260508183945 | 51 | 75 | 2.0 | 5.0 | 0.00 | 0.00 | 0.00 | 56 | 994.4 |
| 20260508183445 | 50 | 80 | 2.0 | 3.0 | 0.00 | 0.00 | 0.00 | 60 | 994.5 |
| 20260508182945 | 50 | 77 | 2.0 | 3.0 | 0.00 | 0.00 | 0.00 | 58 | 994.4 |
| 20260508182445 | 50 | 74 | 2.0 | 3.0 | 0.00 | 0.00 | 0.00 | 56 | 994.5 |
| 20260508181945 | 51 | 77 | 2.0 | 4.0 | 0.00 | 0.00 | 0.00 | 57 | 994.6 |
| 20260508181445 | 51 | 78 | 2.0 | 4.0 | 0.00 | 0.00 | 0.00 | 57 | 994.6 |
| 20260508180945 | 50 | 108 | 2.0 | 4.0 | 0.00 | 0.00 | 0.00 | 57 | 994.7 |
| 20260508180445 | 50 | 77 | 2.0 | 4.0 | 0.00 | 0.00 | 0.00 | 56 | 994.8 |
| 20260508175945 | 50 | 76 | 2.0 | 3.0 | 0.00 | 0.00 | 0.00 | 59 | 994.9 |
| 20260508175445 | 50 | 84 | 2.0 | 4.0 | 0.00 | 0.00 | 0.00 | 56 | 994.8 |
| 20260508174945 | 51 | 114 | 2.0 | 3.0 | 0.00 | 0.00 | 0.00 | 56 | 994.9 |
| 20260508174445 | 51 | 105 | 2.0 | 6.0 | 0.00 | 0.00 | 0.00 | 58 | 994.9 |
| 20260508173945 | 50 | 82 | 2.0 | 4.0 | 0.00 | 0.00 | 0.00 | 59 | 995.0 |
| 20260508173445 | 50 | 117 | 1.0 | 4.0 | 0.00 | 0.00 | 0.00 | 59 | 995.1 |
| 20260508172945 | 50 | 104 | 1.0 | 3.0 | 0.00 | 0.00 | 0.00 | 60 | 995.1 |
| 20260508172445 | 49 | 81 | 2.0 | 3.0 | 0.00 | 0.00 | 0.00 | 59 | 995.1 |
| 20260508171945 | 49 | 90 | 2.0 | 3.0 | 0.00 | 0.00 | 0.00 | 57 | 995.2 |
| 20260508171445 | 50 | 75 | 2.0 | 7.0 | 0.00 | 0.00 | 0.00 | 56 | 995.2 |
| 20260508170945 | 50 | 92 | 2.0 | 4.0 | 0.00 | 0.00 | 0.00 | 59 | 995.3 |
| 20260508170445 | 50 | 73 | 2.0 | 3.0 | 0.00 | 0.00 | 0.00 | 58 | 995.4 |
| 20260508165945 | 51 | 112 | 1.0 | 4.0 | 0.00 | 0.00 | 0.00 | 55 | 995.3 |
| 20260508165445 | 52 | 261 | 1.0 | 3.0 | 0.00 | 0.00 | 0.00 | 54 | 995.4 |
| 20260508164945 | 53 | 64 | 2.0 | 3.0 | 0.00 | 0.00 | 0.00 | 53 | 995.4 |
| 20260508164445 | 54 | 44 | 5.0 | 9.0 | 0.00 | 0.00 | 0.00 | 53 | 995.5 |
| 20260508163945 | 54 | 281 | 9.0 | 14.0 | 0.00 | 0.00 | 0.00 | 47 | 995.3 |
| 20260508163445 | 53 | 284 | 9.0 | 19.0 | 0.00 | 0.00 | 0.00 | 48 | 995.4 |
| 20260508162945 | 53 | 288 | 8.0 | 13.0 | 0.00 | 0.00 | 0.00 | 46 | 995.5 |
| 20260508162445 | 53 | 284 | 8.0 | 14.0 | 0.00 | 0.00 | 0.00 | 47 | 995.5 |
| 20260508161945 | 53 | 313 | 7.0 | 14.0 | 0.00 | 0.00 | 0.00 | 47 | 995.5 |
| 20260508161445 | 54 | 313 | 5.0 | 12.0 | 0.00 | 0.00 | 0.00 | 47 | 995.5 |
| 20260508160945 | 54 | 325 | 5.0 | 10.0 | 0.00 | 0.00 | 0.00 | 47 | 995.5 |
| 20260508160445 | 54 | 306 | 6.0 | 15.0 | 0.00 | 0.00 | 0.00 | 48 | 995.5 |
| 20260508155945 | 54 | 316 | 5.0 | 13.0 | 0.00 | 0.00 | 0.00 | 47 | 995.6 |
| 20260508155445 | 54 | 308 | 5.0 | 9.0 | 0.00 | 0.00 | 0.00 | 48 | 995.7 |
| 20260508154945 | 53 | 292 | 5.0 | 10.0 | 0.00 | 0.00 | 0.00 | 50 | 995.8 |
| 20260508154445 | 52 | 259 | 5.0 | 12.0 | 0.00 | 0.00 | 0.00 | 54 | 995.8 |
| 20260508153945 | 52 | 296 | 5.0 | 9.0 | 0.00 | 0.00 | 0.00 | 54 | 995.9 |
| 20260508153445 | 52 | 281 | 7.0 | 10.0 | 0.00 | 0.00 | 0.00 | 52 | 995.9 |
| 20260508152945 | 51 | 287 | 9.0 | 16.0 | 0.00 | 0.00 | 0.00 | 55 | 996.0 |
| 20260508152445 | 51 | 290 | 10.0 | 16.0 | 0.00 | 0.00 | 0.00 | 51 | 996.1 |
| 20260508151946 | 52 | 318 | 9.0 | 16.0 | 0.00 | 0.00 | 0.00 | 51 | 996.1 |
| 20260508151446 | 52 | 320 | 10.0 | 15.0 | 0.00 | 0.00 | 0.00 | 51 | 996.2 |
| 20260508150946 | 52 | 290 | 10.0 | 15.0 | 0.00 | 0.00 | 0.00 | 52 | 996.3 |
| 20260508150446 | 51 | 329 | 8.0 | 15.0 | 0.00 | 0.00 | 0.00 | 54 | 996.3 |
| 20260508145946 | 51 | 289 | 6.0 | 14.0 | 0.00 | 0.00 | 0.00 | 53 | 996.3 |
| 20260508145446 | 51 | 298 | 5.0 | 11.0 | 0.00 | 0.00 | 0.00 | 58 | 996.3 |
| 20260508144946 | 51 | 269 | 6.0 | 9.0 | 0.00 | 0.00 | 0.00 | 57 | 996.3 |
| 20260508144446 | 50 | 315 | 8.0 | 10.0 | 0.00 | 0.00 | 0.00 | 59 | 996.3 |
| 20260508143946 | 50 | 296 | 8.0 | 13.0 | 0.00 | 0.00 | 0.00 | 58 | 996.4 |
| 20260508143446 | 50 | 289 | 7.0 | 13.0 | 0.00 | 0.00 | 0.00 | 59 | 996.5 |
| 20260508142946 | 49 | 292 | 6.0 | 11.0 | 0.00 | 0.00 | 0.00 | 63 | 996.6 |
| 20260508142446 | 48 | 296 | 5.0 | 10.0 | 0.00 | 0.00 | 0.00 | 62 | 996.5 |
| 20260508141946 | 48 | 287 | 5.0 | 10.0 | 0.00 | 0.00 | 0.00 | 62 | 996.5 |
| 20260508141446 | 48 | 300 | 4.0 | 10.0 | 0.00 | 0.00 | 0.00 | 62 | 996.7 |
| 20260508140946 | 48 | 279 | 5.0 | 7.0 | 0.00 | 0.00 | 0.00 | 65 | 996.6 |
| 20260508140446 | 47 | 315 | 6.0 | 10.0 | 0.00 | 0.00 | 0.00 | 64 | 996.6 |
| 20260508135946 | 47 | 312 | 5.0 | 12.0 | 0.00 | 0.00 | 0.00 | 65 | 996.7 |
| 20260508135446 | 46 | 282 | 5.0 | 8.0 | 0.00 | 0.00 | 0.00 | 66 | 996.7 |
| 20260508134946 | 46 | 326 | 7.0 | 11.0 | 0.00 | 0.00 | 0.00 | 65 | 996.8 |
| 20260508134446 | 46 | 284 | 6.0 | 10.0 | 0.00 | 0.00 | 0.00 | 66 | 996.8 |
| 20260508133946 | 45 | 314 | 6.0 | 11.0 | 0.00 | 0.00 | 0.00 | 69 | 996.8 |
| 20260508133446 | 45 | 261 | 6.0 | 12.0 | 0.00 | 0.00 | 0.00 | 69 | 996.9 |
| 20260508132946 | 44 | 300 | 5.0 | 12.0 | 0.00 | 0.00 | 0.00 | 71 | 996.9 |
| 20260508132446 | 43 | 257 | 4.0 | 9.0 | 0.00 | 0.00 | 0.00 | 72 | 997.0 |
| 20260508131946 | 43 | 285 | 4.0 | 6.0 | 0.00 | 0.00 | 0.00 | 72 | 997.0 |
| 20260508131446 | 42 | 288 | 4.0 | 11.0 | 0.00 | 0.00 | 0.00 | 73 | 997.1 |
| 20260508130946 | 42 | 294 | 3.0 | 7.0 | 0.00 | 0.00 | 0.00 | 75 | 997.0 |
| 20260508130446 | 41 | 284 | 3.0 | 5.0 | 0.00 | 0.00 | 0.00 | 75 | 997.1 |
| 20260508125946 | 41 | 285 | 2.0 | 6.0 | 0.00 | 0.00 | 0.00 | 75 | 997.1 |
| 20260508125446 | 40 | 292 | 1.0 | 3.0 | 0.00 | 0.00 | 0.00 | 77 | 997.1 |
| 20260508124946 | 40 | 284 | 1.0 | 2.0 | 0.00 | 0.00 | 0.00 | 77 | 997.1 |
| 20260508124446 | 40 | 270 | 2.0 | 4.0 | 0.00 | 0.00 | 0.00 | 77 | 997.2 |
| 20260508123946 | 40 | 288 | 3.0 | 6.0 | 0.00 | 0.00 | 0.00 | 78 | 997.3 |
| 20260508123446 | 39 | 290 | 3.0 | 4.0 | 0.00 | 0.00 | 0.00 | 78 | 997.3 |
| 20260508122946 | 39 | 296 | 2.0 | 4.0 | 0.00 | 0.00 | 0.00 | 78 | 997.3 |
| 20260508122446 | 38 | 286 | 3.0 | 4.0 | 0.00 | 0.00 | 0.00 | 79 | 997.2 |
| 20260508121946 | 38 | 284 | 3.0 | 5.0 | 0.00 | 0.00 | 0.00 | 79 | 997.3 |
| 20260508121446 | 37 | 303 | 2.0 | 4.0 | 0.00 | 0.00 | 0.00 | 79 | 997.2 |
| 20260508120946 | 36 | 284 | 2.0 | 3.0 | 0.00 | 0.00 | 0.00 | 79 | 997.2 |
| 20260508120446 | 36 | 288 | 3.0 | 5.0 | 0.00 | 0.00 | 0.00 | 79 | 997.3 |
| 20260508115946 | 36 | 290 | 3.0 | 5.0 | 0.00 | 0.00 | 0.00 | 79 | 997.3 |
| 20260508115446 | 36 | 288 | 2.0 | 3.0 | 0.00 | 0.00 | 0.00 | 80 | 997.3 |
| 20260508114946 | 36 | 286 | 2.0 | 3.0 | 0.00 | 0.00 | 0.00 | 79 | 997.2 |
| 20260508114446 | 35 | 281 | 2.0 | 3.0 | 0.00 | 0.00 | 0.00 | 80 | 997.1 |
| 20260508113946 | 35 | 282 | 1.0 | 3.0 | 0.00 | 0.00 | 0.00 | 80 | 997.1 |
| 20260508113446 | 35 | 284 | 2.0 | 2.0 | 0.00 | 0.00 | 0.00 | 80 | 997.1 |
| 20260508112946 | 35 | 284 | 2.0 | 3.0 | 0.00 | 0.00 | 0.00 | 79 | 997.0 |
| 20260508112446 | 35 | 277 | 2.0 | 3.0 | 0.00 | 0.00 | 0.00 | 80 | 997.1 |
| 20260508111946 | 35 | 282 | 1.0 | 3.0 | 0.00 | 0.00 | 0.00 | 81 | 997.0 |
| 20260508111447 | 34 | 279 | 1.0 | 2.0 | 0.00 | 0.00 | 0.00 | 82 | 997.0 |
| 20260508110946 | 34 | 281 | 1.0 | 2.0 | 0.00 | 0.00 | 0.00 | 82 | 996.9 |
| 20260508110447 | 33 | 273 | 0.0 | 3.0 | 0.00 | 0.00 | 0.00 | 83 | 997.0 |
| 20260508105946 | 33 | 166 | 0.0 | 0.0 | 0.00 | 0.00 | 0.00 | 83 | 997.0 |
| 20260508105446 | 32 | 159 | 0.0 | 0.0 | 0.00 | 0.00 | 0.00 | 83 | 996.9 |
| 20260508104946 | 32 | 159 | 0.0 | 0.0 | 0.00 | 0.00 | 0.00 | 82 | 996.9 |
| 20260508104446 | 32 | 159 | 0.0 | 0.0 | 0.00 | 0.00 | 0.00 | 81 | 996.9 |
| 20260508103946 | 32 | 159 | 0.0 | 0.0 | 0.00 | 0.00 | 0.00 | 81 | 996.9 |
| 20260508103447 | 32 | 159 | 0.0 | 0.0 | 0.00 | 0.00 | 0.00 | 80 | 996.9 |
| 20260508102947 | 32 | 159 | 0.0 | 0.0 | 0.00 | 0.00 | 0.00 | 80 | 996.8 |
| 20260508102447 | 32 | 159 | 0.0 | 0.0 | 0.00 | 0.00 | 0.00 | 80 | 996.7 |
| 20260508101947 | 32 | 159 | 0.0 | 0.0 | 0.00 | 0.00 | 0.00 | 80 | 996.7 |
| 20260508101447 | 32 | 159 | 0.0 | 0.0 | 0.00 | 0.00 | 0.00 | 80 | 996.8 |
| 20260508100947 | 32 | 159 | 0.0 | 0.0 | 0.00 | 0.00 | 0.00 | 80 | 996.7 |
| 20260508100447 | 32 | 159 | 0.0 | 0.0 | 0.00 | 0.00 | 0.00 | 80 | 996.7 |
| 20260508095947 | 32 | 159 | 0.0 | 0.0 | 0.00 | 0.00 | 0.00 | 79 | 996.7 |
| 20260508095447 | 33 | 159 | 0.0 | 0.0 | 0.00 | 0.00 | 0.00 | 79 | 996.7 |
| 20260508094947 | 33 | 159 | 0.0 | 0.0 | 0.00 | 0.00 | 0.00 | 79 | 996.7 |
| 20260508094447 | 33 | 159 | 0.0 | 0.0 | 0.00 | 0.00 | 0.00 | 79 | 996.8 |
| 20260508093947 | 33 | 159 | 0.0 | 0.0 | 0.00 | 0.00 | 0.00 | 79 | 996.8 |
| 20260508093447 | 33 | 159 | 0.0 | 0.0 | 0.00 | 0.00 | 0.00 | 79 | 996.9 |
| 20260508092947 | 33 | 159 | 0.0 | 0.0 | 0.00 | 0.00 | 0.00 | 79 | 996.9 |
| 20260508092447 | 33 | 159 | 0.0 | 0.0 | 0.00 | 0.00 | 0.00 | 80 | 996.9 |
| 20260508091947 | 33 | 159 | 0.0 | 0.0 | 0.00 | 0.00 | 0.00 | 80 | 997.0 |